Wind_Speed
27 26 25 24 23 22 21 20 19 19 18 18 17 16 16 15 15 14 13 13 12 12 11 10 10 9 8 7 6 6 5 5 5 5 6 6 6 6 6 6 6 6 6 7 8 9 9 9 9 9 9 9 9 9 9 11 13 16 17 17 18 19 20 21 23 25 26 27 28 30 30 30 30 32 33 34 35 35 34 33 32 32 33 33 32 32 33 34
30 28 27 26 25 24 23 22 21 20 20 19 18 18 17 17 16 15 15 14 14 13 13 12 12 11 10 9 8 7 7 7 7 7 7 7 7 7 7 8 8 8 8 8 10 10 11 11 11 11 11 11 11 11 11 12 14 17 18 18 19 19 20 22 24 26 27 27 28 29 30 30 30 31 32 34 35 35 34 34 34 34 34 34 34 34 35 34
32 31 30 29 28 27 26 25 23 22 22 20 20 19 18 18 18 17 17 16 15 15 14 14 13 13 12 11 10 9 8 8 8 9 9 9 9 8 9 9 10 10 10 10 11 12 12 12 12 12 12 12 12 12 13 13 15 17 18 19 20 20 21 23 25 27 27 28 28 29 29 30 30 31 33 34 35 35 35 35 36 36 36 36 35 35 35 34
33 33 32 31 30 29 28 27 26 25 24 23 22 21 20 20 19 19 19 18 17 17 16 16 15 15 14 13 11 10 10 10 10 10 10 10 10 10 10 11 12 13 13 12 12 13 13 13 13 14 14 14 13 13 14 16 17 19 19 20 21 22 23 24 25 26 27 28 29 29 29 30 31 32 33 35 35 36 36 37 37 37 37 37 36 36 35 34
35 35 34 33 33 31 30 29 28 27 26 25 25 24 23 22 21 21 21 20 20 19 18 18 17 17 16 15 14 12 12 11 11 11 11 12 12 12 12 13 14 15 15 14 14 14 14 14 14 15 15 15 15 15 16 18 19 20 20 20 21 23 24 25 26 26 27 28 29 29 29 30 32 33 33 35 36 37 37 38 38 37 37 38 37 36 35 33
38 37 36 35 34 34 33 32 31 30 29 28 27 26 25 24 24 23 23 23 22 21 20 20 20 19 18 17 16 15 14 13 13 13 13 13 14 14 14 15 15 16 17 17 16 15 14 14 15 15 15 16 16 17 19 20 21 22 22 21 22 23 25 26 27 28 28 28 29 29 29 31 32 33 34 35 36 37 38 38 38 38 38 38 37 36 34 32
40 39 38 37 36 35 34 34 33 32 31 30 29 28 28 27 27 26 26 25 25 24 23 22 22 22 20 19 18 17 16 16 16 16 16 15 15 15 16 16 17 18 19 19 17 16 15 14 16 17 17 17 18 20 21 23 23 24 24 23 24 25 26 28 28 29 29 29 29 29 30 31 32 34 35 36 37 38 38 38 38 38 38 38 37 36 34 32
43 42 40 39 38 37 36 35 35 34 34 33 32 31 30 29 29 28 28 28 27 27 26 25 24 24 23 22 21 20 19 18 18 18 18 17 17 17 17 18 19 20 20 20 19 18 16 15 16 18 19 19 21 22 23 24 26 26 26 26 26 27 28 29 30 29 29 29 30 30 31 32 33 34 36 37 37 38 38 38 38 38 38 37 36 35 35 33
46 44 43 42 41 39 38 37 37 36 35 35 34 34 33 32 31 31 30 30 29 29 29 28 27 27 26 24 23 22 22 21 20 20 19 19 19 18 18 19 20 21 22 22 20 19 18 17 18 19 20 21 23 24 24 25 27 28 29 29 29 29 29 30 31 30 30 30 30 30 31 33 34 35 36 37 38 38 39 39 39 38 36 35 34 34 34 33
48 47 46 44 43 42 41 40 39 38 37 36 36 36 35 35 34 33 32 32 31 31 31 30 29 28 28 27 26 25 24 23 22 22 22 21 20 20 19 20 21 22 23 24 22 20 19 19 20 20 21 23 24 25 26 27 28 30 31 32 32 31 31 31 31 31 32 32 32 31 32 34 35 36 36 37 39 40 40 39 39 37 35 34 33 33 33 34
50 49 48 47 46 45 43 42 41 40 39 38 38 37 37 37 36 36 35 34 34 33 33 32 31 30 30 29 28 27 26 25 25 24 24 23 22 22 21 21 22 23 24 25 25 22 20 21 21 22 23 24 25 27 28 28 29 31 32 33 33 33 32 32 31 32 32 33 32 32 32 33 34 35 36 36 38 39 39 39 38 36 35 34 33 33 33 34
53 51 50 49 48 47 46 45 44 43 42 41 40 39 39 38 37 37 37 37 36 36 35 35 34 33 31 31 31 29 28 28 27 27 26 26 25 24 24 23 23 24 24 26 28 27 24 23 23 24 25 25 26 28 30 30 30 31 31 32 33 33 33 33 32 32 32 33 33 33 32 32 33 33 34 34 35 37 38 37 36 34 34 33 33 33 33 34
55 54 53 52 51 49 48 47 47 46 45 44 43 42 41 40 39 38 38 38 38 38 38 37 36 36 34 33 34 32 31 31 30 30 29 28 28 27 27 26 25 25 26 27 30 30 28 27 26 26 26 27 29 30 31 32 32 31 30 31 32 33 33 33 33 34 34 33 33 33 33 33 33 33 33 33 34 35 35 35 34 34 34 34 34 34 34 34
57 56 55 54 53 52 51 50 49 48 47 46 45 45 44 43 42 41 41 40 40 39 39 39 38 38 36 36 37 35 34 34 33 33 32 32 31 31 30 28 27 28 28 29 31 32 32 31 29 29 29 30 31 32 33 33 32 32 31 30 31 32 32 33 34 35 35 34 34 34 34 34 35 35 36 36 35 35 35 35 35 35 35 35 36 37 36 36
59 58 57 56 55 54 54 53 52 51 50 49 48 48 47 46 45 44 43 43 42 41 41 40 39 39 38 38 39 37 37 36 36 36 36 35 34 34 33 32 31 31 30 30 32 34 35 34 33 32 32 33 34 34 34 33 33 34 34 33 32 33 33 33 34 35 36 35 35 35 36 36 36 38 40 39 38 37 36 36 36 36 36 36 37 39 39 38
59 59 59 58 58 57 56 55 54 54 53 52 51 50 50 49 47 46 46 46 45 44 43 42 42 41 40 41 41 38 38 38 38 39 38 36 36 36 36 35 35 34 33 33 34 36 36 37 35 34 34 34 34 34 34 34 34 35 37 36 35 34 35 35 35 35 36 36 35 35 37 37 37 39 41 42 41 39 37 36 35 35 36 36 36 38 39 38
60 59 59 59 59 58 58 57 57 56 55 55 54 53 53 52 50 50 49 49 48 47 46 45 44 44 43 44 43 40 39 41 41 41 39 37 37 38 38 37 37 36 35 35 35 36 37 38 37 36 34 34 35 35 34 35 35 37 38 38 37 36 36 37 37 37 37 38 37 35 36 38 38 39 40 42 42 40 39 37 36 35 35 36 36 36 37 38
59 59 59 59 60 59 59 59 59 58 57 57 56 56 55 54 53 53 52 52 51 50 48 47 47 47 46 47 46 43 43 44 44 43 41 39 38 39 39 38 38 38 36 36 37 38 38 39 39 38 36 36 36 36 36 37 37 38 39 39 38 37 37 39 40 39 38 38 39 36 35 36 38 38 39 41 41 40 39 38 36 35 36 36 36 36 36 36
59 59 59 59 59 60 59 59 60 59 58 58 58 58 57 57 56 55 55 54 54 53 51 50 50 49 49 49 48 47 46 47 47 45 43 43 42 42 41 41 41 40 39 38 38 40 40 39 40 40 39 38 38 38 39 39 39 39 39 39 39 38 39 40 41 40 38 38 39 38 35 35 37 38 39 40 40 39 38 37 36 35 36 37 37 36 36 35
58 58 58 58 59 59 59 59 60 60 59 59 59 59 59 59 58 57 57 57 56 55 54 53 52 52 52 52 51 49 49 50 49 47 46 46 45 45 44 44 43 42 41 40 41 43 42 41 41 41 41 41 40 40 40 41 41 40 40 40 39 39 39 39 40 40 39 37 37 38 36 35 36 38 39 39 39 38 37 36 35 35 36 36 37 36 35 33
58 58 58 58 58 58 58 59 60 59 59 59 59 59 59 59 59 58 58 58 58 57 57 56 55 54 54 54 53 52 51 52 51 49 49 48 48 47 47 47 45 45 43 43 44 45 45 43 42 42 42 42 42 42 41 41 41 41 41 40 39 39 40 39 39 39 39 37 36 37 37 35 36 37 38 39 39 38 37 36 36 36 36 35 35 35 34 32
58 58 57 58 58 58 58 58 59 59 58 58 59 59 59 59 59 59 59 59 59 59 58 58 57 56 56 56 56 55 53 53 52 51 51 51 50 49 49 49 48 47 45 45 46 47 47 45 43 43 44 44 43 42 42 42 42 41 42 41 40 40 40 39 38 38 38 37 37 37 37 36 36 37 37 38 38 38 37 36 36 36 35 35 34 33 32 30
58 58 58 58 58 58 59 59 59 58 58 58 58 58 58 58 58 59 59 59 59 59 59 59 58 58 58 57 57 57 56 54 53 53 54 52 51 51 51 51 50 49 47 47 47 48 50 47 45 45 45 45 44 43 43 43 42 42 42 41 41 40 39 38 37 38 38 38 36 37 38 36 35 37 36 37 38 38 37 36 36 35 34 34 33 31 29 27
58 58 58 58 59 59 59 60 59 58 58 57 57 58 58 58 57 58 59 59 59 59 59 59 59 59 58 57 58 59 57 56 55 55 54 53 52 52 52 52 51 50 49 49 48 49 51 48 47 47 46 45 44 44 44 43 42 42 41 41 41 40 39 38 38 38 38 38 35 35 38 37 35 36 36 36 38 38 38 37 37 35 33 33 32 29 27 24
57 57 58 58 59 60 60 60 60 59 58 58 57 58 58 57 57 57 57 58 59 59 58 59 59 58 57 57 59 59 57 56 55 55 54 53 53 53 52 52 52 51 50 50 50 50 50 49 49 49 48 47 46 46 44 42 42 43 42 41 42 40 39 39 39 39 38 38 36 34 35 37 36 35 36 37 38 39 38 37 37 36 33 32 31 28 24 20
55 56 57 58 59 60 60 61 61 61 60 59 58 58 58 57 56 56 57 57 58 58 58 58 58 57 57 58 58 57 57 56 54 54 54 53 53 52 52 53 52 51 51 51 51 50 49 49 49 49 49 49 48 47 44 42 43 44 43 42 42 41 39 40 39 39 39 38 36 34 33 35 36 35 35 36 37 39 38 36 37 36 33 31 30 26 22 17
52 53 55 56 58 59 61 62 62 62 61 60 59 58 58 57 57 57 57 57 57 58 57 57 58 57 56 57 56 56 56 55 53 53 53 52 52 52 53 53 51 51 51 52 51 50 49 48 48 48 49 49 49 48 45 43 44 45 44 43 43 42 40 40 40 39 38 37 36 34 32 33 35 35 34 35 36 38 38 36 36 35 32 31 29 25 19 14
46 49 51 54 56 58 60 62 62 62 62 60 59 59 58 58 58 58 58 57 57 58 57 57 57 57 55 54 54 55 55 53 51 51 51 50 51 52 53 52 50 50 51 52 51 49 49 47 47 48 49 49 49 48 46 45 44 44 44 43 43 42 41 40 40 39 38 38 36 34 32 32 34 35 34 35 36 36 37 35 34 34 31 30 28 23 17 11
40 43 45 48 52 56 58 61 62 62 61 60 59 59 59 59 59 59 58 56 58 59 58 57 56 56 54 53 53 54 55 53 50 49 49 49 49 51 52 51 49 49 50 51 50 48 47 46 47 48 48 48 48 48 47 46 45 44 44 43 42 42 41 40 40 39 39 39 36 34 33 32 33 35 35 35 35 35 35 33 33 33 31 29 27 21 15 11
34 36 39 42 46 50 54 57 59 60 60 59 60 60 60 60 60 59 57 58 60 60 58 56 55 55 54 53 52 52 54 53 50 48 48 49 49 51 52 50 48 47 48 50 49 47 46 45 47 48 48 47 47 47 46 46 45 44 44 44 43 42 41 41 41 40 40 40 37 35 35 33 33 35 35 34 33 33 34 33 33 33 31 29 25 20 14 11
31 32 33 36 39 43 47 50 54 55 56 58 59 60 60 61 60 59 59 61 62 59 57 55 53 54 54 53 51 52 52 53 51 49 48 49 50 51 51 49 47 47 47 50 50 48 46 47 48 48 47 47 46 46 45 45 45 45 44 44 44 43 41 41 40 40 42 41 39 37 37 35 33 34 36 34 32 32 33 33 33 33 30 27 24 19 13 11
30 30 31 32 35 37 40 43 46 48 51 53 55 57 59 60 59 59 62 64 61 58 56 55 54 54 54 54 53 52 52 53 52 50 49 50 50 51 51 49 48 47 48 49 50 49 48 49 49 49 47 46 46 46 45 45 45 45 45 44 44 43 41 41 40 40 42 41 39 38 38 36 34 34 35 35 33 32 32 33 34 33 29 25 22 18 14 12
28 29 30 31 32 34 35 38 39 41 44 47 50 53 55 57 58 61 63 62 59 58 56 55 54 54 54 55 54 52 52 52 52 51 50 50 50 51 51 51 49 48 48 49 50 50 50 50 49 49 48 46 46 46 45 45 45 45 45 44 43 42 41 41 40 40 41 40 39 39 39 37 35 34 35 35 34 33 33 33 34 32 27 23 21 18 15 14
25 27 29 31 32 33 33 34 35 36 39 42 44 47 49 53 58 60 61 59 57 56 55 55 54 53 53 54 53 51 51 51 50 50 49 49 50 51 51 51 49 48 49 48 49 51 51 51 50 47 46 46 47 46 46 46 45 44 44 43 42 42 41 42 41 40 40 39 39 39 39 38 36 35 35 35 34 34 33 33 33 30 25 21 20 18 17 15
25 26 27 29 31 32 33 33 33 34 36 38 40 43 46 51 54 55 54 54 53 53 53 53 53 53 53 53 52 52 52 52 51 50 50 50 50 51 51 50 49 48 48 48 49 50 51 52 50 46 45 46 46 46 46 46 45 44 42 42 42 41 41 41 41 40 39 38 39 40 40 39 37 36 36 36 35 34 34 33 32 29 24 21 20 19 18 17
26 27 28 29 29 30 32 33 33 34 35 36 37 41 44 46 47 47 48 48 48 50 51 51 52 52 53 52 52 52 52 52 52 51 51 51 52 52 51 51 49 48 48 48 49 50 51 51 49 46 46 46 45 46 46 45 45 44 42 41 41 41 41 41 40 39 38 38 39 40 40 39 38 36 35 35 35 34 34 33 31 28 23 22 21 19 18 17
27 28 29 29 30 30 31 31 32 34 35 36 38 40 40 41 42 43 43 43 44 46 48 49 50 51 51 51 52 52 53 53 52 51 52 53 53 52 51 50 49 48 48 48 48 49 50 50 48 47 46 46 45 46 45 44 44 44 42 41 41 41 41 40 40 38 37 37 38 39 39 38 36 35 34 33 33 34 34 32 29 26 23 22 22 19 18 18
28 29 29 30 31 32 32 32 31 33 34 36 39 39 38 38 39 39 39 40 41 42 44 45 46 47 49 49 50 51 52 52 52 52 53 53 53 52 50 48 48 48 48 47 48 48 49 49 48 46 46 45 45 45 44 44 43 42 42 42 41 41 40 39 39 37 35 36 36 37 37 37 34 33 32 32 32 34 33 29 26 24 23 22 22 20 19 21
28 29 30 31 33 33 33 33 33 33 33 35 38 38 37 37 38 37 37 38 38 39 41 42 43 44 45 46 47 49 49 50 50 51 52 51 50 49 47 46 46 46 45 45 46 47 48 47 46 45 45 44 45 44 44 43 42 41 42 42 41 40 38 37 37 35 33 33 33 34 35 35 33 31 31 31 32 33 30 26 24 24 23 22 21 20 21 23
29 30 31 32 33 34 35 34 34 34 35 35 36 36 36 36 36 36 37 37 38 38 39 39 41 41 43 44 45 46 47 47 47 47 47 47 45 43 41 41 42 41 41 42 43 44 45 46 45 45 44 43 43 43 43 43 42 40 41 41 39 37 35 34 34 32 31 30 30 30 32 33 32 30 30 31 32 31 26 23 23 24 23 21 21 21 21 23
29 30 31 32 33 34 35 35 35 36 37 37 36 34 33 33 34 35 37 38 39 38 38 38 39 40 41 43 43 44 44 44 43 44 43 42 40 39 39 39 39 38 38 40 40 41 42 43 43 43 42 41 42 41 41 42 40 39 39 37 35 33 30 30 30 29 27 26 26 27 29 31 30 29 30 31 31 27 22 22 23 23 22 20 20 21 22 24
28 29 30 32 32 33 34 36 37 37 38 38 37 35 33 32 32 34 36 38 39 39 38 38 38 39 41 42 42 41 42 41 41 41 41 40 38 38 38 38 37 37 37 38 38 38 39 40 40 40 39 39 39 39 39 39 38 37 36 33 31 29 27 27 28 27 25 24 24 25 28 30 29 29 30 30 28 24 21 22 22 22 22 20 21 22 23 25
28 29 30 30 31 32 33 35 37 38 39 39 38 37 35 34 33 33 35 37 37 37 37 38 40 40 42 42 41 40 40 39 39 39 38 37 37 37 37 36 35 35 36 36 36 37 38 39 39 38 37 37 37 37 37 37 37 35 32 30 28 27 26 26 27 25 24 24 23 25 28 29 29 30 30 28 25 22 21 21 21 21 21 21 22 23 24 26
27 28 29 30 30 30 31 33 35 37 39 40 40 39 38 37 35 33 34 35 35 35 35 37 40 41 42 42 40 39 39 38 37 37 36 35 35 36 35 34 34 35 35 35 36 36 37 38 38 37 36 36 37 37 37 36 34 32 30 28 27 26 25 25 25 24 24 25 25 27 28 28 29 30 28 24 22 21 21 21 20 20 21 21 21 22 24 26
26 27 28 29 29 29 29 31 33 35 38 40 41 41 40 40 37 35 34 34 34 35 34 36 38 39 40 41 39 38 38 37 36 35 35 34 34 34 33 32 33 34 34 34 35 34 34 36 36 36 35 35 35 35 35 33 32 31 29 27 27 26 26 25 25 24 24 25 27 29 29 29 29 28 24 21 21 21 20 20 19 19 19 20 20 22 24 25
25 25 26 27 27 28 29 30 31 32 34 37 40 40 41 40 39 38 37 35 34 34 34 35 37 37 37 38 37 36 36 36 35 35 35 34 33 33 32 30 30 31 32 33 33 32 32 33 34 33 32 31 30 32 32 31 31 30 28 28 28 27 26 25 24 22 23 25 27 28 30 30 29 25 21 20 20 19 19 19 18 18 18 19 19 21 22 23
24 25 26 26 26 27 28 29 29 30 31 33 35 37 39 40 39 39 39 37 34 34 35 36 36 36 35 35 34 34 34 34 34 34 34 33 32 33 32 30 29 30 30 32 32 32 32 33 33 32 30 28 27 29 30 30 31 30 29 29 28 27 25 23 22 22 23 25 26 28 30 31 27 21 19 20 19 18 18 17 17 17 17 17 19 20 22 22
25 26 26 26 26 26 27 28 28 28 30 30 30 31 35 37 39 40 41 40 37 35 35 35 35 35 34 34 33 32 32 32 33 33 32 31 31 32 31 30 29 29 30 30 31 31 31 33 33 31 29 27 27 28 29 29 29 29 29 28 26 23 22 20 20 22 23 24 26 28 29 28 24 21 20 19 17 16 17 17 17 16 16 17 18 20 21 21
28 28 28 28 28 28 29 28 28 28 28 28 28 29 31 34 37 40 41 41 40 39 37 35 35 36 35 35 34 32 32 32 32 32 31 29 29 30 29 29 29 29 30 30 30 31 31 32 32 30 29 28 27 27 27 26 26 26 25 24 21 19 18 19 20 22 22 23 25 26 26 24 23 22 21 18 15 16 16 16 16 16 16 17 18 20 20 19
32 31 31 31 30 31 31 30 30 29 29 28 28 29 30 32 34 37 39 41 42 43 41 38 37 37 36 35 35 34 33 33 33 33 31 29 29 29 28 28 28 29 30 31 31 32 33 33 32 30 29 28 27 26 24 23 23 22 21 18 16 16 18 20 21 21 21 23 24 24 22 21 23 23 21 17 15 15 15 15 15 15 16 17 18 19 19 19
35 34 34 33 33 33 34 33 33 32 32 30 29 30 31 32 32 33 36 39 42 44 44 42 40 38 36 35 35 34 34 35 36 35 33 32 31 30 29 28 29 31 32 33 34 36 35 34 33 31 29 27 26 24 22 21 20 19 16 14 14 16 19 22 22 21 22 24 24 21 20 21 23 22 19 16 14 13 13 13 14 15 16 17 17 17 18 19
36 36 35 35 35 35 35 35 35 35 35 34 33 33 33 33 32 32 34 36 40 44 46 45 43 41 38 36 35 34 34 35 36 37 36 34 33 32 30 29 30 32 33 35 37 38 36 34 33 31 29 27 26 25 22 20 19 17 15 14 15 17 20 22 23 23 25 26 23 19 20 22 22 20 18 15 13 12 12 13 13 14 15 15 15 16 18 20
Wind_Direction
224 223 222 222 223 224 226 225 225 225 226 227 228 229 230 232 232 231 230 231 231 232 235 238 241 245 249 255 261 266 269 270 270 270 272 275 279 284 289 295 300 303 308 310 309 308 306 306 306 306 308 311 314 321 327 327 325 320 316 315 315 314 315 320 326 331 336 339 339 337 336 333 330 328 328 330 330 330 329 328 326 324 323 324 323 323 323 323
226 225 223 223 224 225 226 227 228 228 228 229 230 231 233 234 234 234 233 233 233 234 236 239 243 246 250 254 258 262 263 263 263 263 265 269 274 278 284 289 291 291 294 299 300 300 303 306 309 310 311 311 312 314 318 323 322 317 313 312 311 311 315 320 325 328 333 336 335 333 330 328 326 327 329 330 331 331 330 328 326 325 326 326 324 324 324 325
227 227 226 225 225 225 226 227 229 230 231 231 231 232 233 234 235 236 236 235 236 237 238 241 245 248 251 254 256 258 259 259 260 262 264 266 271 274 279 282 285 286 287 291 294 297 300 303 306 307 306 303 303 307 313 320 317 311 307 308 309 313 316 320 323 327 331 332 331 328 326 325 325 327 330 331 331 331 330 328 328 327 328 327 326 326 327 328
229 228 228 227 226 226 226 228 229 230 232 233 233 233 234 234 235 237 238 238 238 239 241 243 246 249 251 254 255 256 256 258 258 260 263 265 268 270 273 276 278 280 281 285 289 294 297 301 303 303 303 302 303 307 312 314 309 304 303 307 312 316 319 321 324 326 328 328 326 325 324 324 326 329 331 331 331 331 331 330 329 329 328 328 328 329 330 329
229 229 229 229 228 227 227 228 229 230 232 233 234 235 236 236 237 237 239 240 240 241 242 245 247 249 251 253 254 254 255 256 257 258 258 260 263 265 267 270 273 277 280 282 285 290 295 299 301 301 302 303 305 309 310 307 303 301 302 308 315 319 319 320 322 324 324 324 323 323 323 325 326 329 331 331 331 331 331 330 329 329 329 329 330 331 330 329
230 230 230 230 230 229 229 229 229 230 232 233 234 235 237 238 239 239 240 242 243 243 243 245 248 250 251 253 253 254 254 254 255 256 256 257 259 263 265 268 271 275 278 279 281 285 290 295 298 298 299 303 306 308 306 303 302 302 303 309 315 317 317 318 321 321 321 321 321 321 323 324 326 328 330 331 332 331 331 330 329 329 330 330 330 330 330 329
233 231 231 231 231 231 231 230 230 231 232 233 234 235 236 238 240 241 242 243 245 246 245 246 249 250 251 252 253 253 254 254 254 255 256 256 258 261 265 268 270 272 274 276 278 280 283 290 294 296 299 302 303 303 302 302 302 304 306 311 314 314 316 318 318 318 318 319 319 320 322 324 325 328 330 331 332 331 330 329 329 330 330 329 330 330 329 329
235 234 233 232 232 232 232 232 232 232 233 234 235 236 237 238 239 241 243 245 246 248 248 248 249 251 251 252 253 253 254 254 255 255 256 257 258 261 264 268 270 271 272 274 277 280 282 285 290 294 297 299 299 298 300 302 304 306 308 310 311 313 315 315 315 316 318 318 319 320 322 324 326 328 330 330 330 330 329 328 329 329 329 329 329 329 328 330
236 236 235 234 233 233 233 233 233 233 234 234 235 236 238 238 239 241 242 245 247 248 249 249 250 252 253 253 253 254 254 255 255 256 257 257 258 259 262 266 270 272 274 274 276 281 285 287 288 291 294 295 296 297 299 303 305 306 307 308 310 314 315 314 315 317 317 317 319 321 323 324 326 328 329 329 329 329 328 328 328 328 327 328 328 328 329 330
238 237 237 236 235 234 234 234 234 234 235 235 236 237 238 239 240 241 242 244 246 248 250 251 251 252 254 254 254 255 256 256 256 257 257 257 258 258 259 262 267 271 275 276 276 277 282 286 288 289 291 294 296 299 301 303 304 306 307 310 312 314 314 314 316 316 317 317 319 321 323 324 326 329 329 329 329 328 327 327 327 327 327 328 329 329 330 331
238 238 239 238 238 237 236 235 235 235 236 236 236 237 238 239 241 242 243 244 246 247 249 251 251 252 254 255 256 256 257 258 257 257 258 258 259 259 259 261 264 268 273 277 279 277 277 280 283 287 290 294 298 300 300 300 302 306 309 311 312 313 313 313 314 314 315 315 317 320 322 325 326 327 328 328 327 325 324 325 326 327 328 329 330 331 331 331
238 238 239 240 239 239 238 238 237 237 237 237 237 238 239 240 241 242 244 244 246 247 248 250 251 252 253 255 256 256 257 258 259 259 259 259 260 261 260 261 263 267 272 277 280 280 279 278 280 284 288 291 294 295 296 297 301 304 307 308 309 309 310 310 311 311 311 312 314 318 321 323 324 325 325 325 323 321 321 323 325 326 328 329 330 330 330 331
237 238 239 240 240 240 240 240 239 239 238 238 238 239 239 240 241 242 244 245 246 247 249 250 251 252 253 254 256 256 257 258 259 260 260 261 261 261 261 261 264 267 270 274 278 280 280 280 280 281 284 287 288 289 292 295 298 300 301 302 303 304 305 306 307 308 309 311 315 318 321 322 322 321 321 319 319 319 321 323 324 327 329 331 331 331 331 331
236 237 238 239 240 240 241 241 241 241 240 240 240 240 240 240 241 242 244 245 246 248 249 251 252 253 253 254 255 256 257 257 258 260 260 261 261 262 262 263 264 266 267 271 275 278 279 280 281 282 284 285 286 288 291 294 296 297 296 296 298 299 301 304 306 308 309 312 316 318 319 320 320 319 319 319 321 324 326 327 327 329 332 333 332 331 332 333
236 237 237 238 239 239 240 241 242 242 242 241 241 241 241 241 241 242 243 244 246 247 249 250 252 253 253 253 254 255 256 257 258 258 259 261 263 264 265 265 265 265 266 269 272 275 277 279 280 282 284 285 287 289 292 295 297 296 294 295 297 299 301 304 305 307 309 311 315 317 319 320 321 322 322 323 326 329 330 329 330 331 332 333 333 332 332 334
236 236 237 238 238 238 239 240 241 242 242 242 243 243 243 243 242 242 243 244 245 246 248 249 251 253 254 254 254 254 256 257 257 257 259 261 263 265 266 267 267 267 269 270 271 274 277 278 279 280 283 285 288 291 293 295 295 294 294 297 299 302 304 304 303 304 307 310 314 318 319 320 323 324 324 325 327 329 330 329 330 331 332 332 332 332 331 332
235 236 237 237 238 238 238 239 240 241 241 242 243 244 244 244 244 243 243 244 244 245 246 248 250 252 253 254 255 255 256 257 257 258 260 261 262 264 266 268 269 270 271 271 272 274 276 278 280 281 282 285 287 289 291 291 292 293 295 298 301 303 304 302 301 304 308 311 314 318 320 321 323 324 325 324 326 328 327 327 329 331 331 331 331 331 330 330
235 235 236 237 238 238 238 238 239 239 240 241 242 243 244 245 245 245 244 244 245 245 245 246 248 249 251 254 255 255 255 256 257 259 260 261 261 262 264 265 267 268 269 271 272 273 275 277 280 282 283 284 286 288 288 289 290 293 296 298 300 302 302 301 303 307 310 313 315 318 321 322 322 323 323 322 323 325 324 325 329 331 330 330 330 330 330 331
235 235 236 237 238 238 238 238 238 239 239 240 241 242 243 245 246 246 246 246 246 246 246 246 247 248 250 252 253 254 255 256 258 259 260 260 261 261 262 263 264 266 268 269 271 272 273 275 279 281 283 284 285 286 287 288 290 292 295 297 299 301 301 303 306 308 311 314 315 317 320 321 321 321 321 320 320 322 322 323 328 330 329 329 329 329 331 332
235 235 236 236 237 238 238 238 239 238 238 239 240 241 242 243 245 246 247 247 247 248 247 247 247 247 248 250 252 253 254 256 258 259 260 261 261 262 263 263 265 266 268 269 270 271 273 274 277 280 282 283 284 285 286 289 290 292 294 295 298 300 300 303 306 308 311 313 314 315 318 319 319 318 319 318 318 319 320 323 328 329 328 328 328 329 332 333
236 236 236 236 237 237 238 238 239 239 239 239 240 240 241 242 243 245 246 247 248 249 248 248 248 248 248 249 250 251 252 255 257 259 260 261 262 263 264 265 266 267 268 270 271 272 273 274 276 278 280 281 283 285 287 288 290 291 293 294 297 298 299 302 305 307 309 311 312 313 315 317 317 316 317 316 316 317 320 325 328 327 328 328 327 329 333 334
237 237 237 237 237 238 238 238 239 239 239 239 240 240 241 241 242 243 245 246 247 248 249 249 249 249 249 250 250 251 251 253 255 257 258 260 261 263 264 265 266 267 268 269 271 273 273 274 276 277 278 280 283 285 286 286 288 290 292 294 296 297 299 302 304 305 306 308 310 311 312 314 315 315 314 314 316 317 320 325 326 326 327 326 327 331 335 334
237 237 237 237 238 238 238 238 239 239 239 239 240 240 241 241 241 242 243 244 246 247 248 249 250 250 250 251 252 252 251 252 253 254 256 258 260 262 263 265 266 267 268 269 270 272 273 274 276 276 278 280 282 283 284 285 288 290 292 293 294 296 298 300 301 301 302 305 309 310 310 312 314 312 313 315 316 317 320 324 324 325 325 324 327 333 335 333
238 238 237 237 238 238 239 239 239 239 239 239 240 241 241 241 241 242 243 243 245 246 246 248 249 250 251 252 253 253 253 253 253 254 256 258 259 261 263 264 266 267 268 269 270 271 273 275 276 276 277 279 280 281 282 285 288 289 289 291 292 293 295 296 296 297 300 303 306 307 307 310 311 311 313 316 316 317 320 323 322 322 323 322 326 332 333 329
238 238 238 237 238 238 239 240 240 239 239 239 239 240 241 241 241 242 243 244 244 245 246 247 248 249 250 251 252 254 255 255 255 256 257 258 258 260 262 263 265 266 267 268 269 270 273 275 276 277 278 278 279 279 282 285 286 286 287 288 289 291 292 293 294 296 298 301 303 305 307 309 312 313 315 316 315 316 319 321 318 318 321 321 324 330 330 326
239 239 238 238 238 238 239 239 240 240 239 239 239 240 241 241 241 242 243 244 245 245 245 246 247 248 249 250 252 254 255 256 256 257 258 259 260 261 261 262 264 265 267 268 269 270 272 274 276 278 279 279 279 279 281 283 283 284 286 287 288 290 291 292 293 295 298 300 303 306 308 309 310 312 313 314 313 314 316 318 315 315 318 319 321 326 326 323
240 239 238 238 238 238 238 239 239 239 239 239 240 240 241 241 242 242 242 243 245 245 246 246 247 248 248 250 252 253 254 256 257 258 260 261 262 263 263 263 264 266 267 268 269 270 272 274 276 278 279 279 280 281 282 282 282 284 286 287 289 291 292 293 294 296 299 300 302 305 308 308 307 309 311 311 311 312 314 315 312 312 315 315 317 322 322 319
239 239 239 238 238 238 238 239 239 239 239 239 240 240 241 242 242 242 242 243 244 245 245 246 247 248 249 250 252 253 254 255 256 258 260 261 262 263 264 265 266 266 267 268 269 271 272 274 275 276 277 278 280 282 283 282 283 285 287 288 290 292 293 293 294 296 298 298 300 304 306 306 306 308 310 309 309 309 311 312 310 309 312 312 314 320 320 315
239 239 238 238 238 238 238 238 239 239 239 239 239 240 240 241 242 242 243 243 244 244 244 245 247 248 249 250 252 254 255 255 255 257 259 260 261 262 263 264 265 266 268 269 270 272 273 274 274 274 275 277 279 281 283 284 285 286 287 288 289 290 292 293 294 296 296 297 300 304 305 306 306 306 306 305 306 307 309 309 307 307 309 310 313 320 320 315
239 238 237 237 238 238 238 238 238 239 239 239 239 239 240 241 241 242 243 243 243 244 244 246 248 249 250 250 251 253 256 257 256 256 257 258 259 260 262 263 265 266 268 270 270 270 271 272 271 272 273 275 277 280 282 284 285 286 287 288 289 290 291 293 294 296 296 298 302 305 304 305 305 304 303 303 305 306 307 306 303 303 305 307 314 321 320 316
239 239 238 238 238 238 238 239 239 239 239 238 238 239 239 240 241 242 242 243 243 244 246 246 248 249 250 250 250 251 254 255 255 254 254 256 258 259 261 262 263 265 266 268 269 269 269 269 269 270 272 274 276 278 281 282 284 285 286 287 288 290 292 293 295 296 296 299 303 304 303 304 304 302 301 302 304 305 304 303 301 299 301 307 315 318 313 306
241 240 239 239 239 239 239 239 239 239 239 238 239 239 239 240 241 241 241 242 244 245 246 246 247 248 250 251 250 250 252 254 255 254 254 255 256 258 260 261 261 262 263 265 268 269 268 267 268 270 272 274 276 277 279 280 281 282 284 286 288 290 291 292 293 293 294 298 301 302 301 302 302 301 301 302 304 303 300 299 297 297 302 311 315 310 300 293
243 242 241 241 241 241 240 240 240 239 239 238 238 239 239 240 240 240 241 243 245 246 247 247 248 248 251 252 252 252 254 255 257 258 258 258 258 260 261 261 261 261 262 264 266 268 268 268 269 271 273 274 275 276 277 278 279 280 282 285 287 288 289 289 290 291 293 297 300 300 299 300 301 300 300 301 303 302 299 297 294 296 305 313 311 302 292 287
245 244 243 242 242 242 242 241 240 239 239 238 238 238 238 239 239 240 242 244 245 247 248 249 249 250 251 252 254 255 255 256 257 258 259 260 260 261 261 262 263 263 263 264 265 267 268 269 269 271 274 275 275 276 277 277 278 280 282 283 284 286 287 288 289 291 293 296 298 297 297 299 300 301 301 301 301 299 297 295 293 298 307 310 305 295 288 283
247 247 246 245 244 244 243 242 241 240 239 239 238 237 237 238 240 242 244 245 245 247 247 248 248 249 249 251 252 253 254 254 254 255 256 257 258 258 259 260 261 262 263 264 265 267 268 269 270 272 273 273 275 276 276 277 279 280 281 282 283 285 286 287 289 291 294 296 296 296 297 299 301 301 301 301 299 297 295 293 293 299 306 305 298 288 281 279
248 248 248 248 248 247 245 244 242 241 240 239 238 238 239 240 242 243 244 244 244 245 245 246 246 247 248 249 250 250 251 252 252 253 253 253 254 255 256 257 259 261 262 263 265 266 268 270 272 272 272 272 273 274 275 277 278 279 280 282 283 284 284 286 288 290 293 295 295 296 297 299 300 300 299 298 295 294 292 291 294 299 303 300 291 281 276 275
249 249 249 249 249 249 248 246 244 242 241 240 240 240 241 242 243 243 244 244 243 244 244 245 245 246 247 247 247 248 249 250 250 250 250 251 252 254 256 258 260 261 262 263 265 266 268 269 271 271 272 272 273 273 274 276 277 278 280 281 281 281 282 284 287 290 292 293 294 294 296 297 297 297 296 294 291 289 288 290 293 297 299 293 286 280 275 273
250 250 250 249 249 249 249 248 247 245 243 242 242 243 242 243 244 244 244 244 243 243 244 244 245 245 246 246 247 247 248 249 250 250 251 252 254 256 257 259 260 261 262 263 264 265 266 267 268 269 270 271 272 272 273 274 275 277 278 278 278 279 282 284 287 290 292 292 293 294 295 295 294 294 292 290 288 285 286 290 293 294 293 288 283 279 274 273
250 250 250 249 248 247 247 247 247 247 246 245 245 244 243 244 245 245 244 244 243 243 243 244 244 244 245 245 246 247 248 248 249 251 253 255 256 258 260 260 260 261 262 262 262 263 264 265 266 266 267 268 270 271 272 272 273 274 275 276 277 280 283 286 289 291 292 293 293 294 293 292 292 291 289 287 285 284 287 291 291 289 288 285 282 277 272 273
249 248 248 248 248 247 247 246 246 247 247 247 247 246 245 244 245 245 245 244 243 243 243 243 244 244 244 244 244 246 247 248 249 251 253 255 256 258 259 259 259 259 260 261 261 262 263 263 264 264 265 266 267 268 270 270 271 272 273 275 278 281 285 287 288 289 291 291 291 290 290 290 290 289 287 284 283 284 289 290 286 284 284 282 279 275 272 274
248 247 247 247 247 247 246 245 244 245 246 247 248 248 247 245 244 244 244 243 242 242 241 242 243 244 244 244 244 245 246 248 249 250 251 253 254 254 254 254 255 255 256 257 258 259 261 262 263 263 264 264 265 266 268 269 271 272 273 276 279 282 285 286 285 285 286 287 287 287 288 287 286 285 282 279 282 287 290 287 283 282 281 279 277 275 274 275
248 247 247 246 245 245 245 244 242 242 244 246 247 248 247 245 243 242 243 242 241 240 240 241 242 243 244 244 244 245 246 247 249 250 251 252 252 252 252 252 253 253 254 255 256 257 259 260 261 262 263 264 265 266 267 268 270 271 273 277 280 281 281 281 281 281 284 284 284 285 283 282 282 280 277 278 285 290 286 282 280 279 278 276 276 276 276 276
247 247 247 247 246 245 244 243 243 241 242 243 244 245 245 244 242 242 243 244 243 242 241 241 242 242 244 245 245 245 246 247 248 250 251 252 252 252 252 252 252 251 251 252 253 253 254 256 257 258 259 261 263 264 265 266 268 271 274 277 278 279 278 279 280 283 285 284 281 277 276 277 278 276 276 281 285 282 277 276 275 274 274 273 273 273 274 275
248 248 249 249 248 247 246 244 243 241 241 241 240 241 242 242 241 241 243 244 244 243 242 241 241 242 244 246 246 247 247 248 248 249 250 251 251 252 252 251 250 249 249 251 251 251 251 253 254 255 256 256 258 260 262 264 268 271 274 276 277 278 279 280 282 283 284 282 278 274 273 274 274 273 276 279 276 270 269 270 269 269 270 269 271 272 272 274
248 249 250 250 250 249 248 246 245 243 242 241 240 239 240 241 241 241 242 242 242 242 241 241 242 242 244 246 248 248 249 249 249 249 249 249 250 251 252 251 251 251 251 251 251 252 253 255 257 258 260 261 262 263 264 265 268 270 273 275 275 275 275 277 279 281 281 279 277 274 272 270 268 270 274 272 266 263 263 264 264 266 269 270 271 273 274 275
247 249 251 252 252 251 251 250 248 246 245 244 243 242 241 241 241 241 242 243 243 243 241 241 242 243 244 246 247 248 248 249 249 249 249 249 249 250 251 251 251 252 252 252 252 252 253 254 256 257 260 263 265 266 265 264 265 266 269 269 269 269 271 274 276 276 274 272 272 271 269 267 266 268 267 263 260 259 259 261 263 266 270 272 274 276 277 278
247 250 251 253 254 254 254 253 252 251 250 248 247 245 244 243 242 241 242 243 243 243 242 241 242 242 243 244 244 244 245 246 247 247 248 248 248 249 248 249 250 251 252 252 252 252 252 253 254 255 256 256 258 258 258 258 259 260 260 261 263 266 269 271 272 268 265 265 266 265 264 265 266 264 259 256 256 257 258 260 264 268 274 277 278 279 279 280
249 251 252 253 254 256 256 257 256 255 254 252 251 249 247 244 241 240 240 240 241 242 243 242 242 242 242 242 242 242 242 244 244 244 244 244 245 246 246 246 247 249 250 252 253 253 253 254 254 254 253 252 251 252 253 255 256 257 258 260 262 265 267 268 266 261 260 261 261 261 262 264 265 259 252 251 253 255 257 260 266 273 279 281 280 279 280 281
252 252 253 254 254 255 257 258 259 258 257 255 253 251 248 245 242 239 239 238 237 239 240 240 240 240 240 241 241 240 241 242 243 243 241 239 240 242 242 242 242 244 246 248 250 251 252 253 253 252 252 251 250 251 254 257 260 262 263 264 264 263 261 259 257 256 257 259 260 261 263 262 258 253 250 249 249 252 255 260 269 277 280 280 279 278 280 281
254 254 255 255 255 256 256 257 258 258 258 258 255 252 250 246 243 240 239 237 236 236 237 237 238 239 240 241 241 240 240 240 241 242 240 237 236 236 235 235 235 237 240 242 244 245 246 248 249 250 250 250 251 252 253 256 260 263 266 267 264 258 252 250 250 251 254 256 258 260 260 255 251 249 249 247 243 246 252 260 269 276 278 279 279 281 283 285
257 256 256 256 257 257 257 257 257 257 258 258 257 254 252 248 245 241 238 236 235 235 235 235 236 238 238 239 240 240 239 238 239 240 238 236 234 232 230 229 228 231 234 236 238 239 240 243 246 248 249 250 251 251 251 252 255 257 260 259 255 250 247 246 246 245 246 249 251 253 252 249 247 248 248 244 240 242 252 260 266 272 276 278 282 287 291 292
257 257 258 258 258 258 258 258 258 258 258 257 256 255 254 251 247 243 240 236 234 234 234 233 233 235 236 237 238 239 238 237 237 237 236 234 232 231 229 226 225 227 230 233 235 236 237 239 242 244 245 245 246 246 245 245 247 248 248 247 245 244 244 245 244 241 243 246 248 248 247 246 245 247 248 246 240 242 250 258 264 271 276 281 287 294 297 296
Height
10989 10990 10992 10993 10994 10995 10996 10997 10998 11000 11001 11002 11002 11003 11004 11004 11005 11006 11007 11008 11009 11010 11010 11011 11012 11012 11013 11014 11014 11015 11015 11015 11015 11015 11015 11015 11015 11015 11015 11015 11015 11015 11015 11015 11015 11014 11014 11014 11014 11014 11015 11016 11016 11017 11017 11017 11018 11018 11017 11016 11016 11015 11014 11012 11010 11009 11007 11006 11004 11003 11001 11000 10999 10998 10996 10993 10991 10988 10985 10983 10982 10980 10978 10976 10974 10972 10970 10968
10986 10988 10990 10991 10993 10994 10995 10996 10997 10998 10999 11000 11001 11002 11003 11003 11004 11005 11006 11007 11008 11009 11010 11010 11011 11011 11012 11013 11014 11015 11015 11015 11015 11015 11015 11015 11015 11015 11015 11015 11015 11015 11015 11015 11015 11014 11014 11014 11014 11014 11015 11016 11016 11017 11017 11017 11017 11017 11017 11016 11015 11014 11012 11010 11009 11007 11006 11005 11004 11002 11001 11000 10999 10997 10995 10992 10989 10987 10984 10982 10980 10978 10976 10973 10971 10969 10967 10964
10984 10986 10988 10989 10991 10992 10993 10994 10995 10996 10998 10999 11000 11001 11002 11002 11003 11003 11004 11005 11006 11007 11008 11009 11010 11011 11012 11013 11014 11015 11015 11015 11015 11015 11015 11015 11015 11015 11015 11015 11014 11014 11014 11014 11014 11014 11014 11014 11014 11014 11015 11015 11015 11016 11016 11016 11017 11017 11016 11015 11013 11012 11011 11009 11008 11007 11006 11005 11004 11002 11001 11000 10998 10996 10994 10991 10988 10986 10983 10981 10978 10976 10973 10971 10969 10966 10963 10961
10981 10983 10985 10987 10988 10990 10991 10993 10994 10995 10996 10997 10998 10999 11000 11001 11001 11002 11003 11004 11005 11006 11007 11008 11009 11010 11011 11012 11013 11014 11014 11015 11015 11015 11015 11015 11015 11016 11016 11015 11014 11014 11014 11014 11014 11015 11015 11015 11014 11014 11014 11014 11014 11015 11015 11015 11015 11015 11015 11013 11012 11011 11010 11009 11008 11007 11006 11005 11003 11002 11001 10999 10996 10994 10992 10990 10987 10985 10982 10979 10977 10974 10971 10969 10966 10963 10961 10959
10979 10980 10982 10984 10986 10988 10989 10991 10992 10993 10994 10995 10996 10998 10998 10999 11000 11001 11001 11002 11003 11005 11006 11007 11007 11008 11010 11011 11012 11013 11014 11014 11014 11014 11015 11015 11015 11015 11015 11015 11014 11013 11013 11013 11014 11015 11015 11015 11014 11014 11013 11013 11013 11013 11013 11014 11014 11014 11014 11013 11011 11010 11009 11008 11008 11007 11006 11004 11003 11002 11000 10997 10994 10993 10991 10989 10986 10984 10981 10978 10975 10972 10970 10967 10964 10961 10959 10957
10975 10978 10979 10981 10983 10985 10987 10988 10990 10991 10992 10993 10994 10996 10997 10998 10998 10999 11000 11000 11001 11003 11004 11005 11006 11007 11008 11009 11011 11012 11013 11013 11013 11013 11014 11014 11014 11014 11014 11014 11013 11012 11012 11012 11014 11015 11016 11015 11014 11013 11012 11012 11011 11011 11011 11012 11012 11012 11012 11012 11011 11010 11008 11007 11006 11006 11005 11004 11002 11001 10999 10996 10993 10991 10990 10988 10985 10982 10980 10977 10974 10971 10968 10965 10962 10960 10958 10956
10972 10974 10976 10979 10980 10982 10984 10986 10987 10989 10990 10991 10992 10993 10995 10996 10996 10997 10998 10998 10999 11000 11002 11003 11004 11005 11006 11008 11009 11010 11011 11012 11012 11012 11013 11013 11014 11014 11013 11013 11012 11012 11011 11011 11013 11015 11016 11016 11014 11012 11011 11011 11010 11010 11010 11009 11009 11009 11009 11010 11010 11009 11008 11006 11005 11005 11004 11003 11001 10999 10997 10995 10993 10991 10989 10987 10984 10981 10978 10976 10972 10969 10966 10963 10960 10958 10956 10955
10968 10971 10973 10975 10977 10980 10982 10983 10985 10986 10988 10989 10990 10991 10992 10993 10994 10995 10996 10996 10997 10998 10999 11001 11002 11003 11004 11006 11007 11008 11009 11010 11010 11011 11011 11012 11013 11013 11012 11012 11011 11010 11010 11010 11011 11013 11015 11015 11013 11012 11011 11010 11009 11009 11009 11008 11007 11006 11006 11007 11007 11007 11006 11005 11004 11003 11002 11001 11000 10998 10996 10994 10992 10990 10987 10985 10983 10980 10977 10974 10971 10967 10964 10962 10959 10957 10955 10953
10964 10967 10969 10972 10974 10976 10978 10980 10982 10984 10985 10986 10987 10988 10989 10991 10992 10993 10994 10994 10995 10996 10997 10999 11000 11000 11002 11004 11005 11006 11007 11008 11009 11009 11010 11010 11011 11011 11011 11010 11009 11008 11008 11008 11010 11011 11012 11013 11012 11011 11010 11009 11009 11008 11008 11007 11005 11003 11003 11004 11005 11005 11004 11003 11001 11000 11000 10999 10998 10996 10994 10992 10990 10989 10986 10983 10981 10978 10974 10971 10969 10966 10963 10960 10958 10956 10954 10952
10960 10963 10965 10968 10970 10973 10975 10977 10979 10981 10983 10984 10985 10986 10987 10988 10989 10990 10992 10992 10993 10994 10995 10996 10997 10999 10999 11001 11003 11004 11005 11006 11007 11007 11008 11008 11009 11010 11010 11010 11008 11007 11006 11005 11007 11010 11011 11011 11011 11010 11010 11009 11007 11006 11006 11005 11004 11002 11001 11001 11002 11002 11001 11000 10999 10998 10997 10996 10996 10995 10993 10990 10988 10987 10985 10982 10978 10975 10972 10969 10967 10964 10961 10959 10957 10955 10953 10951
10956 10959 10961 10964 10966 10969 10971 10973 10976 10978 10979 10981 10982 10983 10984 10985 10986 10988 10989 10990 10991 10991 10992 10993 10995 10996 10997 10999 11000 11001 11002 11003 11004 11005 11005 11006 11007 11008 11009 11008 11008 11007 11005 11003 11004 11008 11010 11010 11010 11009 11009 11008 11006 11004 11004 11004 11003 11002 11000 10998 10998 10998 10998 10998 10997 10997 10995 10994 10994 10994 10992 10990 10988 10986 10984 10981 10977 10973 10970 10968 10965 10962 10959 10957 10955 10954 10952 10950
10952 10955 10957 10960 10962 10965 10967 10969 10972 10974 10976 10977 10979 10980 10981 10983 10984 10985 10986 10987 10988 10989 10990 10991 10992 10994 10995 10996 10997 10999 11000 11001 11002 11002 11003 11004 11005 11006 11006 11007 11006 11006 11005 11003 11001 11003 11007 11008 11009 11008 11008 11007 11005 11004 11003 11003 11003 11003 11001 10999 10997 10996 10996 10996 10996 10995 10994 10993 10993 10992 10991 10990 10988 10986 10984 10980 10977 10973 10970 10967 10964 10961 10957 10955 10954 10952 10951 10948
10948 10951 10953 10955 10958 10961 10963 10965 10967 10969 10972 10974 10976 10977 10978 10980 10982 10982 10983 10984 10985 10986 10987 10988 10990 10991 10993 10994 10994 10996 10998 10998 10999 10999 11000 11002 11002 11003 11004 11005 11005 11005 11005 11003 11000 11000 11003 11005 11006 11007 11006 11005 11004 11003 11002 11002 11003 11003 11002 11000 10998 10996 10995 10994 10994 10994 10993 10993 10992 10990 10990 10988 10986 10985 10983 10980 10976 10973 10969 10966 10963 10959 10956 10953 10951 10950 10949 10947
10944 10946 10949 10951 10954 10956 10959 10961 10963 10965 10967 10970 10971 10973 10975 10977 10979 10979 10980 10981 10982 10983 10984 10986 10987 10988 10990 10990 10991 10993 10994 10995 10996 10996 10997 10998 10999 11000 11001 11003 11004 11004 11004 11003 11000 10998 10999 11001 11003 11004 11004 11003 11002 11002 11001 11002 11001 11000 11000 11000 10998 10997 10995 10994 10993 10991 10991 10991 10990 10989 10988 10986 10984 10982 10979 10977 10974 10971 10968 10964 10960 10956 10954 10952 10949 10947 10947 10945
10939 10942 10944 10947 10949 10952 10954 10956 10958 10961 10963 10965 10967 10968 10971 10973 10975 10976 10977 10978 10979 10980 10981 10983 10984 10985 10986 10987 10987 10990 10991 10992 10993 10993 10994 10995 10996 10997 10998 11000 11001 11001 11002 11002 11000 10998 10997 10999 11000 11001 11001 11000 11000 10999 10999 10999 10998 10996 10995 10996 10997 10996 10995 10994 10993 10991 10989 10988 10988 10987 10986 10984 10982 10978 10974 10972 10970 10968 10965 10961 10958 10955 10953 10951 10949 10946 10944 10942
10934 10937 10939 10942 10945 10947 10950 10952 10954 10956 10958 10960 10962 10964 10966 10968 10970 10973 10973 10974 10975 10977 10978 10980 10981 10981 10983 10982 10984 10987 10988 10988 10989 10989 10991 10993 10994 10994 10995 10997 10997 10998 11000 11000 10999 10997 10995 10996 10997 10999 10999 10998 10997 10997 10997 10996 10994 10992 10991 10992 10994 10994 10993 10992 10991 10990 10987 10987 10987 10986 10983 10981 10979 10975 10971 10967 10966 10965 10962 10959 10957 10954 10952 10950 10948 10945 10942 10940
10930 10932 10935 10937 10940 10942 10945 10947 10949 10951 10954 10955 10957 10959 10961 10963 10966 10968 10969 10970 10971 10973 10975 10977 10978 10978 10979 10978 10980 10984 10985 10984 10984 10986 10989 10991 10992 10992 10992 10994 10994 10995 10997 10997 10996 10995 10993 10992 10993 10996 10996 10996 10995 10995 10994 10993 10991 10990 10989 10989 10990 10991 10990 10987 10987 10987 10986 10985 10985 10985 10982 10978 10976 10973 10969 10964 10962 10962 10959 10957 10955 10953 10951 10949 10947 10946 10942 10939
10925 10928 10930 10932 10934 10937 10940 10942 10944 10946 10949 10951 10952 10954 10956 10958 10960 10963 10964 10965 10967 10969 10972 10974 10974 10975 10975 10975 10977 10980 10981 10980 10980 10983 10985 10987 10989 10989 10989 10990 10990 10991 10993 10993 10993 10992 10991 10990 10990 10991 10993 10993 10993 10992 10990 10989 10989 10988 10988 10987 10987 10987 10986 10983 10982 10984 10984 10982 10981 10981 10980 10977 10974 10971 10968 10963 10961 10960 10957 10954 10954 10952 10949 10947 10946 10945 10942 10939
10920 10923 10925 10927 10929 10932 10935 10937 10938 10941 10944 10946 10947 10949 10951 10953 10955 10957 10959 10961 10962 10965 10968 10969 10970 10971 10972 10971 10973 10975 10976 10976 10976 10980 10981 10983 10984 10984 10985 10986 10986 10987 10989 10990 10989 10988 10988 10989 10988 10987 10989 10990 10990 10989 10987 10986 10987 10986 10986 10985 10984 10984 10982 10980 10978 10979 10981 10980 10978 10977 10977 10975 10972 10969 10966 10962 10959 10958 10956 10953 10953 10951 10948 10946 10945 10943 10942 10939
10915 10918 10920 10922 10924 10926 10929 10931 10933 10936 10939 10941 10942 10945 10946 10948 10950 10952 10954 10955 10957 10960 10963 10965 10966 10967 10967 10968 10969 10972 10972 10972 10973 10976 10977 10978 10979 10980 10981 10982 10983 10984 10986 10986 10985 10984 10985 10986 10986 10985 10985 10985 10985 10985 10984 10984 10983 10984 10983 10983 10982 10981 10980 10979 10977 10976 10977 10978 10976 10974 10974 10973 10970 10967 10964 10961 10957 10955 10954 10952 10951 10949 10947 10946 10943 10942 10940 10938
10910 10913 10915 10917 10919 10921 10924 10926 10927 10930 10934 10936 10937 10940 10942 10944 10946 10948 10949 10950 10952 10954 10957 10959 10961 10962 10963 10964 10965 10967 10969 10968 10970 10973 10973 10974 10975 10976 10977 10978 10979 10981 10982 10982 10981 10980 10980 10983 10984 10983 10982 10981 10982 10982 10982 10981 10980 10981 10980 10980 10980 10979 10977 10978 10976 10975 10975 10975 10974 10972 10971 10971 10969 10966 10962 10959 10955 10953 10951 10951 10949 10948 10946 10945 10943 10941 10939 10937
10905 10907 10910 10913 10914 10916 10919 10920 10922 10925 10929 10931 10932 10934 10937 10939 10941 10943 10943 10945 10947 10948 10951 10953 10955 10957 10958 10959 10960 10963 10965 10966 10968 10969 10969 10970 10972 10972 10972 10973 10975 10977 10978 10978 10977 10975 10975 10978 10981 10980 10979 10978 10979 10979 10978 10978 10978 10978 10978 10977 10978 10976 10975 10976 10974 10973 10972 10972 10972 10970 10968 10968 10966 10963 10961 10957 10953 10951 10949 10949 10948 10946 10944 10943 10942 10940 10938 10936
10899 10902 10905 10907 10909 10911 10913 10914 10917 10920 10923 10926 10927 10929 10932 10934 10937 10938 10938 10940 10941 10943 10945 10947 10949 10950 10952 10954 10955 10957 10960 10963 10964 10964 10964 10967 10968 10969 10969 10969 10971 10973 10974 10974 10974 10971 10970 10974 10977 10976 10975 10976 10976 10976 10975 10975 10976 10976 10975 10975 10974 10974 10974 10973 10972 10970 10970 10970 10971 10968 10965 10966 10964 10961 10958 10955 10951 10949 10947 10946 10946 10945 10943 10941 10940 10939 10937 10935
10893 10896 10900 10902 10904 10905 10907 10909 10911 10915 10918 10921 10922 10924 10926 10929 10932 10933 10934 10936 10936 10938 10940 10942 10943 10945 10948 10950 10949 10950 10954 10958 10960 10960 10962 10964 10965 10965 10966 10966 10967 10969 10970 10970 10970 10968 10966 10970 10971 10971 10973 10973 10973 10972 10972 10973 10973 10972 10972 10972 10971 10971 10971 10970 10969 10968 10968 10969 10969 10968 10964 10962 10962 10958 10955 10953 10949 10947 10946 10944 10943 10942 10941 10939 10938 10938 10936 10934
10888 10891 10894 10897 10898 10899 10901 10903 10905 10909 10912 10915 10917 10919 10921 10923 10926 10928 10929 10930 10931 10933 10936 10937 10938 10941 10943 10943 10942 10945 10949 10952 10955 10956 10958 10960 10961 10962 10963 10962 10962 10964 10965 10965 10966 10965 10965 10966 10966 10966 10969 10969 10969 10969 10970 10971 10969 10968 10969 10969 10968 10969 10969 10967 10966 10966 10967 10967 10967 10967 10963 10959 10958 10955 10952 10950 10947 10944 10944 10943 10940 10939 10939 10937 10936 10936 10935 10933
10882 10885 10888 10891 10892 10894 10896 10897 10899 10903 10906 10909 10912 10914 10916 10918 10922 10923 10924 10925 10926 10928 10931 10932 10933 10936 10938 10938 10939 10943 10944 10947 10951 10951 10952 10955 10957 10958 10958 10958 10959 10961 10961 10961 10961 10962 10963 10963 10962 10962 10962 10963 10963 10965 10967 10968 10965 10963 10965 10966 10965 10966 10966 10965 10964 10964 10964 10964 10964 10964 10963 10958 10955 10953 10951 10948 10945 10942 10942 10941 10938 10936 10936 10935 10934 10934 10933 10932
10877 10879 10882 10885 10886 10888 10890 10890 10893 10897 10900 10904 10907 10910 10912 10913 10916 10918 10918 10920 10921 10923 10925 10927 10929 10931 10933 10934 10937 10939 10939 10943 10947 10947 10949 10951 10952 10953 10952 10954 10956 10957 10957 10956 10957 10959 10960 10961 10960 10959 10957 10957 10958 10959 10963 10964 10961 10960 10961 10962 10961 10962 10963 10962 10961 10962 10961 10961 10960 10960 10960 10957 10953 10951 10950 10947 10944 10941 10939 10939 10936 10935 10934 10933 10932 10932 10931 10930
10872 10874 10877 10879 10880 10881 10883 10884 10888 10890 10894 10899 10903 10905 10906 10908 10910 10911 10913 10915 10916 10917 10920 10922 10924 10926 10930 10932 10934 10934 10935 10940 10944 10944 10946 10948 10948 10947 10947 10949 10952 10953 10952 10951 10953 10955 10956 10958 10957 10955 10953 10953 10953 10954 10956 10958 10958 10958 10957 10958 10958 10958 10959 10958 10958 10958 10958 10957 10957 10958 10957 10955 10952 10949 10947 10945 10942 10940 10938 10936 10934 10933 10932 10931 10931 10931 10930 10929
10867 10869 10871 10873 10873 10875 10877 10878 10881 10885 10889 10895 10897 10899 10900 10902 10903 10904 10908 10910 10909 10910 10914 10917 10920 10923 10926 10929 10931 10930 10930 10935 10940 10942 10943 10944 10943 10942 10942 10944 10947 10948 10947 10947 10949 10951 10953 10954 10952 10950 10950 10950 10950 10950 10951 10953 10954 10954 10954 10954 10954 10954 10955 10954 10954 10954 10954 10953 10954 10955 10954 10953 10950 10947 10945 10943 10941 10938 10936 10934 10932 10931 10930 10929 10929 10930 10929 10928
10864 10865 10867 10867 10868 10869 10871 10873 10876 10880 10885 10889 10891 10892 10894 10896 10897 10899 10903 10902 10900 10904 10910 10915 10918 10919 10922 10925 10928 10927 10926 10929 10935 10938 10938 10939 10939 10937 10938 10941 10944 10945 10944 10943 10944 10947 10949 10949 10947 10945 10947 10947 10947 10948 10948 10949 10949 10949 10950 10950 10950 10950 10951 10950 10950 10950 10949 10948 10951 10952 10950 10949 10948 10944 10942 10940 10939 10936 10934 10932 10930 10929 10929 10928 10928 10929 10928 10927
10860 10862 10863 10863 10863 10864 10866 10868 10871 10875 10880 10882 10884 10887 10889 10889 10891 10896 10896 10891 10894 10902 10908 10912 10914 10914 10916 10920 10923 10923 10922 10924 10928 10932 10933 10933 10933 10932 10933 10937 10940 10941 10940 10938 10938 10942 10945 10943 10942 10942 10944 10945 10945 10946 10946 10946 10945 10945 10945 10945 10945 10946 10947 10947 10947 10946 10944 10944 10947 10947 10945 10945 10945 10941 10938 10937 10936 10934 10931 10929 10928 10927 10927 10928 10928 10927 10926 10925
10857 10858 10859 10859 10860 10861 10862 10864 10867 10871 10874 10876 10879 10881 10882 10884 10887 10888 10884 10884 10893 10901 10904 10907 10909 10909 10911 10913 10916 10918 10918 10919 10922 10925 10928 10929 10928 10928 10929 10932 10935 10936 10936 10934 10934 10936 10938 10937 10937 10939 10940 10942 10942 10943 10943 10943 10943 10942 10942 10942 10942 10943 10944 10944 10944 10943 10941 10941 10943 10942 10941 10940 10940 10938 10934 10933 10932 10931 10928 10926 10925 10924 10926 10927 10926 10925 10924 10922
10854 10855 10856 10856 10857 10858 10859 10861 10864 10867 10869 10871 10873 10875 10878 10879 10879 10878 10877 10884 10892 10896 10899 10902 10904 10906 10907 10907 10910 10914 10916 10916 10918 10921 10923 10924 10925 10925 10925 10926 10930 10931 10932 10932 10931 10930 10931 10931 10934 10935 10937 10939 10938 10939 10939 10939 10939 10939 10939 10940 10940 10940 10940 10940 10940 10941 10939 10939 10939 10938 10936 10936 10935 10933 10931 10929 10928 10926 10925 10923 10922 10923 10924 10925 10924 10922 10921 10920
10851 10852 10853 10853 10854 10855 10856 10858 10861 10863 10864 10866 10868 10870 10872 10871 10870 10872 10876 10884 10889 10892 10895 10897 10899 10903 10903 10903 10907 10910 10911 10912 10914 10916 10917 10919 10919 10919 10920 10921 10925 10927 10927 10928 10927 10926 10925 10926 10929 10933 10934 10934 10933 10934 10935 10934 10935 10936 10936 10937 10936 10936 10936 10936 10936 10937 10937 10937 10935 10933 10931 10931 10931 10929 10927 10925 10924 10922 10921 10920 10919 10921 10922 10922 10921 10919 10918 10918
10848 10849 10849 10850 10851 10852 10854 10855 10857 10859 10860 10862 10864 10865 10864 10863 10866 10871 10876 10881 10886 10888 10890 10892 10894 10896 10897 10899 10902 10903 10904 10906 10908 10910 10911 10912 10912 10912 10914 10916 10919 10921 10922 10923 10923 10922 10921 10921 10925 10930 10930 10929 10929 10929 10929 10929 10930 10931 10932 10932 10932 10933 10932 10932 10932 10933 10933 10933 10931 10929 10927 10926 10926 10925 10923 10921 10920 10918 10917 10917 10917 10918 10919 10919 10918 10916 10916 10916
10845 10846 10846 10847 10848 10849 10851 10852 10854 10856 10856 10858 10859 10858 10859 10862 10866 10870 10873 10877 10880 10881 10884 10886 10888 10890 10891 10894 10896 10896 10897 10899 10902 10904 10905 10905 10905 10906 10908 10911 10914 10916 10917 10918 10918 10918 10917 10917 10921 10925 10925 10925 10925 10925 10925 10925 10925 10926 10928 10928 10928 10928 10928 10928 10929 10930 10931 10930 10927 10925 10923 10923 10921 10920 10919 10918 10916 10915 10914 10914 10915 10916 10916 10915 10914 10913 10913 10913
10842 10843 10844 10844 10845 10846 10847 10849 10851 10852 10853 10854 10854 10855 10858 10862 10864 10866 10869 10872 10875 10876 10878 10880 10882 10884 10886 10888 10889 10890 10891 10892 10896 10897 10897 10897 10899 10902 10905 10908 10911 10912 10913 10914 10914 10914 10914 10914 10917 10919 10919 10920 10920 10920 10920 10921 10921 10922 10923 10924 10924 10924 10924 10925 10926 10927 10928 10927 10924 10922 10920 10919 10918 10916 10915 10914 10912 10910 10910 10912 10912 10913 10912 10911 10910 10910 10910 10910
10839 10840 10841 10841 10842 10843 10844 10846 10847 10848 10849 10850 10850 10853 10857 10858 10860 10863 10866 10868 10870 10871 10873 10875 10877 10879 10881 10882 10883 10884 10886 10888 10890 10891 10891 10893 10896 10900 10904 10906 10907 10908 10909 10910 10910 10910 10910 10910 10912 10913 10914 10914 10914 10915 10916 10916 10917 10918 10918 10918 10919 10920 10921 10922 10923 10924 10924 10923 10921 10918 10916 10914 10913 10912 10910 10909 10908 10906 10907 10909 10910 10909 10909 10908 10908 10908 10908 10907
10836 10837 10837 10838 10838 10839 10840 10842 10844 10845 10846 10846 10847 10850 10853 10855 10857 10860 10862 10863 10865 10867 10868 10870 10872 10874 10875 10877 10878 10879 10881 10883 10884 10886 10888 10890 10894 10898 10901 10903 10903 10903 10905 10906 10905 10905 10904 10905 10907 10908 10909 10909 10909 10910 10910 10911 10913 10914 10913 10913 10915 10917 10919 10919 10919 10920 10920 10919 10917 10915 10911 10909 10908 10908 10906 10905 10904 10903 10905 10907 10907 10906 10906 10905 10906 10906 10905 10903
10833 10833 10833 10834 10834 10835 10836 10838 10840 10841 10842 10842 10844 10847 10850 10852 10855 10856 10857 10859 10860 10862 10864 10866 10867 10869 10870 10871 10873 10874 10876 10878 10880 10882 10884 10887 10891 10895 10897 10897 10897 10899 10900 10900 10900 10900 10899 10900 10902 10902 10904 10905 10905 10905 10905 10905 10908 10909 10909 10910 10912 10914 10916 10916 10916 10916 10916 10915 10913 10911 10908 10905 10904 10903 10903 10901 10900 10900 10903 10904 10904 10903 10903 10903 10903 10903 10902 10901
10829 10829 10829 10830 10831 10831 10833 10835 10836 10837 10837 10838 10841 10843 10846 10849 10850 10851 10852 10853 10855 10857 10859 10861 10863 10864 10864 10866 10868 10870 10872 10875 10877 10878 10880 10884 10888 10890 10890 10891 10892 10893 10894 10893 10894 10895 10895 10896 10897 10898 10900 10901 10900 10901 10901 10901 10903 10905 10906 10907 10909 10911 10912 10912 10911 10911 10911 10910 10908 10907 10904 10901 10900 10900 10899 10898 10898 10899 10901 10901 10901 10901 10901 10901 10901 10900 10900 10899
10824 10825 10825 10826 10827 10828 10829 10830 10831 10833 10833 10835 10837 10840 10842 10844 10845 10846 10847 10847 10849 10852 10855 10857 10858 10859 10859 10861 10864 10867 10869 10872 10873 10874 10877 10881 10884 10884 10885 10886 10887 10888 10889 10888 10889 10891 10890 10891 10892 10894 10896 10897 10896 10897 10897 10898 10899 10901 10902 10905 10906 10907 10908 10908 10907 10907 10907 10906 10905 10903 10900 10897 10897 10896 10895 10895 10896 10898 10899 10899 10899 10899 10898 10898 10898 10898 10898 10897
10820 10821 10821 10821 10823 10824 10825 10826 10827 10829 10830 10831 10833 10836 10838 10839 10841 10842 10842 10843 10846 10849 10852 10853 10853 10854 10855 10856 10860 10863 10866 10868 10870 10871 10874 10877 10879 10879 10880 10882 10883 10884 10884 10884 10885 10886 10885 10885 10887 10889 10891 10892 10892 10893 10893 10894 10895 10897 10900 10902 10902 10903 10904 10904 10903 10903 10903 10902 10900 10898 10895 10894 10894 10893 10893 10894 10895 10896 10896 10896 10897 10897 10896 10896 10897 10897 10896 10895
10817 10817 10817 10818 10819 10820 10821 10822 10823 10825 10826 10827 10829 10831 10833 10834 10837 10839 10839 10841 10843 10845 10848 10848 10849 10850 10851 10853 10857 10860 10862 10865 10867 10868 10871 10873 10874 10875 10876 10878 10879 10879 10880 10880 10880 10881 10881 10881 10883 10885 10887 10888 10888 10889 10890 10891 10892 10895 10897 10898 10899 10900 10900 10900 10900 10900 10899 10898 10896 10894 10892 10892 10891 10890 10891 10893 10893 10893 10894 10894 10895 10895 10895 10895 10895 10895 10895 10894
10813 10813 10814 10815 10816 10817 10818 10818 10819 10821 10822 10822 10824 10827 10828 10830 10833 10836 10836 10837 10839 10841 10843 10844 10845 10847 10849 10851 10854 10857 10859 10861 10863 10865 10867 10869 10870 10871 10872 10874 10875 10875 10876 10876 10876 10877 10878 10878 10879 10881 10883 10885 10886 10887 10888 10890 10891 10892 10894 10895 10895 10896 10896 10896 10896 10896 10896 10894 10892 10890 10889 10888 10887 10888 10890 10891 10891 10892 10892 10893 10894 10894 10894 10894 10894 10894 10893 10893
10810 10811 10811 10812 10812 10814 10814 10815 10816 10817 10818 10819 10821 10824 10825 10827 10831 10833 10833 10835 10836 10838 10840 10840 10841 10844 10846 10848 10851 10853 10855 10857 10859 10861 10862 10865 10867 10867 10868 10870 10871 10872 10872 10872 10873 10874 10875 10874 10875 10878 10880 10882 10885 10886 10887 10888 10888 10889 10890 10891 10891 10892 10893 10893 10893 10893 10892 10890 10888 10887 10885 10885 10885 10887 10889 10889 10890 10890 10891 10892 10892 10893 10892 10892 10893 10892 10891 10892
10808 10808 10808 10809 10810 10810 10811 10811 10813 10814 10815 10816 10818 10821 10822 10825 10828 10829 10830 10832 10834 10835 10836 10837 10838 10841 10843 10845 10847 10849 10851 10853 10855 10856 10857 10861 10863 10863 10864 10866 10867 10867 10868 10868 10869 10870 10871 10870 10871 10874 10877 10879 10881 10882 10883 10883 10884 10885 10886 10886 10887 10888 10889 10890 10889 10889 10888 10886 10885 10883 10881 10882 10884 10887 10887 10887 10888 10889 10889 10890 10890 10890 10890 10891 10890 10889 10889 10890
10805 10805 10806 10806 10807 10807 10807 10808 10809 10811 10811 10813 10816 10817 10818 10820 10823 10824 10825 10828 10830 10831 10832 10834 10836 10838 10839 10841 10843 10846 10847 10848 10850 10851 10853 10856 10858 10859 10861 10862 10863 10863 10864 10864 10865 10866 10867 10866 10868 10871 10874 10876 10877 10878 10878 10879 10880 10881 10882 10883 10884 10885 10885 10886 10885 10884 10883 10882 10880 10879 10879 10880 10883 10884 10884 10885 10887 10887 10887 10888 10888 10888 10889 10889 10888 10887 10887 10889
10801 10802 10802 10803 10804 10804 10804 10805 10806 10807 10808 10810 10812 10813 10813 10815 10816 10818 10820 10824 10826 10826 10828 10830 10832 10833 10835 10837 10840 10842 10843 10845 10846 10847 10849 10852 10853 10854 10856 10858 10859 10859 10860 10861 10862 10862 10863 10863 10864 10868 10870 10872 10873 10874 10876 10877 10878 10879 10880 10881 10882 10882 10882 10882 10881 10880 10879 10878 10877 10876 10878 10879 10880 10880 10882 10884 10886 10886 10886 10887 10887 10887 10887 10886 10885 10885 10885 10887
10797 10798 10799 10800 10801 10801 10801 10802 10803 10803 10804 10806 10808 10808 10808 10810 10811 10813 10816 10819 10821 10821 10823 10825 10827 10828 10830 10832 10835 10837 10839 10840 10842 10843 10845 10848 10849 10850 10852 10853 10855 10855 10855 10856 10857 10858 10858 10858 10861 10864 10867 10869 10871 10872 10874 10875 10876 10877 10878 10879 10880 10880 10879 10878 10877 10877 10876 10874 10874 10874 10876 10877 10877 10877 10880 10883 10884 10885 10886 10886 10886 10885 10885 10884 10883 10883 10883 10884
10792 10793 10795 10796 10797 10797 10797 10798 10799 10800 10801 10802 10803 10804 10804 10805 10807 10809 10811 10813 10815 10815 10817 10821 10822 10824 10826 10828 10830 10832 10834 10835 10837 10838 10841 10843 10844 10845 10847 10849 10850 10850 10850 10851 10852 10852 10853 10855 10858 10862 10864 10867 10868 10870 10872 10873 10874 10875 10876 10877 10878 10877 10876 10875 10875 10874 10872 10871 10871 10872 10874 10874 10874 10875 10878 10880 10882 10884 10884 10884 10884 10883 10883 10882 10881 10881 10881 10882
10787 10788 10790 10791 10792 10792 10793 10794 10795 10796 10797 10798 10799 10799 10799 10800 10803 10805 10806 10808 10809 10810 10812 10815 10817 10819 10822 10824 10826 10828 10829 10830 10832 10833 10835 10838 10839 10841 10843 10845 10846 10846 10846 10846 10845 10846 10849 10853 10856 10859 10862 10864 10865 10867 10870 10871 10872 10873 10874 10874 10874 10874 10874 10873 10872 10871 10869 10868 10869 10871 10872 10872 10872 10874 10876 10878 10880 10881 10882 10882 10882 10882 10881 10880 10879 10879 10879 10880